Погода в Волотове

Россия / Липецкая область     52°57′57″N   39°05′09″E
темп.,
°C
ветер,
м/с
пор.,
м/с
влажн.,
%
обл.,
%
осадки,
мм/ч
давл.,
гПа
погр.,
м
23 апреля, пт
пт2300:00+8ю49825 0.0 1019154
03:00+7ю488452 0.0 1019118
06:00+7ю388398 0.0 1019143
09:00+13ю586074 0.0 1018548
12:00+16ююз684198 0.0 10172611
15:00+15ю5849100 0.0 10161877
18:00+14ю695622 0.0 1014680
21:00+11ююв5127351 0.1 1014274
24 апреля, сб
сб2400:00+9ююв41183100 0.3 1011235
03:00+8ю41187100 0.4 1010367
06:00+5зсз6893100 1.6 1010678
09:00+5зсз5887100 2.9 1010769
12:00+8зюз4663100 0.8 10091411
15:00+10з684791 1.4 10082150
18:00+7з7966100 0.8 10091062
21:00+4зюз5106478 0.1 1011474
25 апреля, вс
вс2500:00+2зюз61090100 0.1 1011726
03:00+2з814775 0.4 1013638
06:00+1з612845 0.0 1014494
09:00+5з711635 0.0 10151184
12:00+8з91343100 0.2 10152717
15:00+9зюз71244100 0.2 10152669
18:00+7з6115725 0.6 10151423
21:00+4зюз4879100 0.8 1015395
26 апреля, пн
пн2600:00+3з369453 1.8 1016445
03:00+1юз38915 1.8 1016201
06:00+1зюз369275 0.0 1016183
09:00+5з346461 0.0 1016875
12:00+8зюз3447100 0.1 10152027
15:00+8зюз5644100 0.2 10142051
18:00+7зюз565386 0.2 10131419
21:00+4зюз377499 0.4 1013148
27 апреля, вт
вт2700:00+3юз51078100 0.0 1013347
03:00+1зюз49854 0.0 1014294
06:00+1зюз49845 0.0 1014290
09:00+6з46575 0.0 1015911
12:00+8з454375 0.0 10142058
15:00+9зюз4539100 0.1 10131998
18:00+9зюз2346100 0.0 1013950
21:00+6сз2463100 0.1 1014123